📊 Raw Sensor Data

Showing records 43376 to 43400 of 85,017 total

ID Distance (ft) Battery V Battery A Int Temp (°F) Int Humid (%) Ext Temp (°F) Solar V RSSI SNR Time Stamp
41654 15.7 3.78 -5 55 44 56 0.00 -69 8 05/25/2025 11:00 PM
41653 15.7 3.78 -5 56 44 56 0.00 -68 8 05/25/2025 10:45 PM
41652 15.7 3.78 -5 56 44 57 0.00 -69 8 05/25/2025 10:30 PM
41651 15.7 3.90 -5 56 44 57 0.00 -71 8 05/25/2025 10:15 PM
41650 15.7 3.78 -5 56 45 57 0.00 -68 8 05/25/2025 10:00 PM
41649 15.7 3.80 -5 57 45 57 0.00 -69 8 05/25/2025 09:45 PM
41648 15.7 3.91 -5 57 45 58 0.10 -69 8 05/25/2025 09:30 PM
41647 15.7 3.79 -5 58 46 58 0.00 -67 8 05/25/2025 09:15 PM
41646 15.7 3.82 -5 59 46 59 0.10 -70 8 05/25/2025 09:00 PM
41645 15.7 3.80 -5 59 46 60 0.00 -68 8 05/25/2025 08:45 PM
41644 15.7 3.91 -5 60 47 60 0.60 -72 8 05/25/2025 08:30 PM
41643 15.7 3.79 -10 61 47 61 4.00 -70 6 05/25/2025 08:15 PM
41642 15.7 3.79 0 63 48 62 4.50 -68 7 05/25/2025 08:00 PM
41641 15.8 3.96 6 64 48 63 4.50 -70 8 05/25/2025 07:45 PM
41640 15.8 3.84 -19 66 49 64 4.50 -69 8 05/25/2025 07:30 PM
41639 15.8 4.00 6 69 48 66 4.50 -69 8 05/25/2025 07:15 PM
41638 15.8 4.07 0 71 48 68 4.50 -68 7 05/25/2025 07:00 PM
41637 15.8 3.88 0 71 49 68 5.10 -69 8 05/25/2025 06:45 PM
41636 15.8 3.97 0 72 49 69 5.10 -69 8 05/25/2025 06:30 PM
41635 15.9 3.88 0 75 49 70 5.10 -70 8 05/25/2025 06:15 PM
41634 15.8 3.88 0 75 50 71 5.10 -69 8 05/25/2025 06:00 PM
41633 15.9 3.89 0 77 51 70 5.10 -69 8 05/25/2025 05:45 PM
41632 15.9 3.89 0 81 49 74 5.10 -70 8 05/25/2025 05:30 PM
41631 16.0 3.89 0 84 47 77 5.10 -70 8 05/25/2025 05:15 PM
41630 15.9 3.89 0 85 47 78 5.10 -71 7 05/25/2025 05:00 PM